Location: ???????????
(54.6970°N, 39.1477°E)
Time: 03:23:42
(UTC+00:00)

Cosmos 1300 - Pass Details

Date: 19 May 2025
Orbit: 394 x 397 km, 82.5° (Epoch: 14 June)

Event Time Altitude Azimuth Distance (km) Brightness Sun altitude
Rises 22:15:34 0° 335° (NNW) 2,322 6.9 -14.4°
Reaches altitude 10° 22:18:04 10° 314° (NW) 1,455 5.4 -14.3°
Maximum altitude 22:20:09 17° 272° (W) 1,114 4.3 -14.2°
Enters shadow 22:21:03 15° 251° (WSW) 1,181 4.2 -14.2°
